Weather History for Clinton, MO

Change the Weather History Date:

Tuesday, January 22, 2013

  Actual Average (KSZL) Record (KSZL)
Temperature  
Mean Temperature 26 °F -  
Max Temperature 32 °F 37 °F 61 °F (2009)
Min Temperature 19 °F 20 °F 5 °F (2003)
Degree Days  
Heating Degree Days 40    
Moisture  
Dew Point 9 °F    
Average Humidity 52    
Maximum Humidity 74    
Minimum Humidity 40    
Precipitation  
Precipitation 0.00 in - - ()
Sea Level Pressure  
Sea Level Pressure 30.34 in    
Wind  
Wind Speed 4 mph (ENE)    
Max Wind Speed 8 mph    
Max Gust Speed -    
Visibility 10 miles    
Events      
Averages and records for this station are not official NWS values.
T = Trace of Precipitation, MM = Missing Value Source: NWS Daily Summary

Daily Weather History Graph

Daily Weather History Graph

Search for Another Location

Airport:

Trip Planner

Search our weather history database for the weather conditions in past years. The results will help you decide how hot, cold, wet, or windy it might be!

Date:

Astronomy

Jan. 22, 2013 Rise Set
Actual Time 7:27 AM CST 5:26 PM CST
Civil Twilight 6:58 AM CST 5:54 PM CST
Nautical Twilight 6:26 AM CST 6:26 PM CST
Astronomical Twilight 5:54 AM CST 6:58 PM CST
Moon 1:50 PM CST (1/22) 3:48 AM CST (1/22)
Length of Visible Light 10h 56m
Length of Day
9h 59m
Waxing Gibbous, 83% of the Moon is Illuminated
Jan 22
Waxing Gibbous
Jan 26
Full
Feb 3
Last Quarter
Feb 10
New
Feb 17
First Quarter

Hourly Weather History & Observations

Time (CST) Temp. Windchill Dew Point Humidity Pressure Visibility Wind Dir Wind Speed Gust Speed Precip Events Conditions
12:15 AM 21.2 °F 13.6 °F 5.0 °F 50% 30.37 in 10.0 mi NE 5.8 mph - N/A   Overcast
12:35 AM 21.2 °F 13.6 °F 5.0 °F 50% 30.37 in 10.0 mi NE 5.8 mph - N/A   Overcast
12:55 AM 21.2 °F - 5.0 °F 50% 30.37 in 10.0 mi Calm Calm - N/A   Overcast
1:15 AM 21.2 °F 13.6 °F 5.0 °F 50% 30.37 in 10.0 mi NE 5.8 mph - N/A   Overcast
1:55 AM 21.2 °F 13.6 °F 5.0 °F 50% 30.37 in 10.0 mi NE 5.8 mph - N/A   Overcast
2:15 AM 19.4 °F 11.5 °F 5.0 °F 54% 30.37 in 10.0 mi NNE 5.8 mph - N/A   Overcast
2:55 AM 19.4 °F 9.5 °F 5.0 °F 54% 30.37 in 10.0 mi NE 8.1 mph - N/A   Overcast
3:15 AM 19.4 °F 11.5 °F 5.0 °F 54% 30.38 in 10.0 mi NNE 5.8 mph - N/A   Overcast
3:35 AM 19.4 °F 10.4 °F 5.0 °F 54% 30.38 in 10.0 mi NNE 6.9 mph - N/A   Mostly Cloudy
3:55 AM 19.4 °F 9.5 °F 5.0 °F 54% 30.38 in 10.0 mi NE 8.1 mph - N/A   Partly Cloudy
4:15 AM 19.4 °F 11.5 °F 5.0 °F 54% 30.37 in 10.0 mi NE 5.8 mph - N/A   Clear
4:35 AM 19.4 °F 9.5 °F 5.0 °F 54% 30.37 in 10.0 mi NNE 8.1 mph - N/A   Clear
4:55 AM 19.4 °F 11.5 °F 5.0 °F 54% 30.37 in 10.0 mi NE 5.8 mph - N/A   Clear
5:15 AM 19.4 °F 10.4 °F 5.0 °F 54% 30.37 in 10.0 mi NE 6.9 mph - N/A   Clear
5:35 AM 19.4 °F 10.4 °F 5.0 °F 54% 30.37 in 10.0 mi NE 6.9 mph - N/A   Clear
5:55 AM 19.4 °F 10.4 °F 5.0 °F 54% 30.37 in 10.0 mi ENE 6.9 mph - N/A   Clear
6:15 AM 19.4 °F 10.4 °F 5.0 °F 54% 30.37 in 10.0 mi ENE 6.9 mph - N/A   Clear
6:35 AM 19.4 °F 10.4 °F 5.0 °F 54% 30.37 in 10.0 mi ENE 6.9 mph - N/A   Clear
6:55 AM 19.4 °F - 5.0 °F 54% 30.38 in 10.0 mi Calm Calm - N/A   Clear
7:15 AM 19.4 °F - 5.0 °F 54% 30.38 in 10.0 mi Calm Calm - N/A   Clear
7:35 AM 19.4 °F 12.8 °F 5.0 °F 54% 30.38 in 10.0 mi East 4.6 mph - N/A   Clear
7:55 AM 19.4 °F - 5.0 °F 54% 30.38 in 10.0 mi Calm Calm - N/A   Clear
8:15 AM 19.4 °F 9.5 °F 5.0 °F 54% 30.38 in 10.0 mi ENE 8.1 mph - N/A   Clear
8:35 AM 19.4 °F 11.5 °F 5.0 °F 54% 30.38 in 10.0 mi East 5.8 mph - N/A   Clear
8:55 AM 21.2 °F 11.7 °F 5.0 °F 50% 30.40 in 10.0 mi East 8.1 mph - N/A   Clear
9:35 AM 21.2 °F 12.6 °F 5.0 °F 50% 30.40 in 10.0 mi East 6.9 mph - N/A   Clear
9:55 AM 23.0 °F 13.9 °F 5.0 °F 46% 30.41 in 10.0 mi ESE 8.1 mph - N/A   Clear
10:15 AM 23.0 °F 14.7 °F 5.0 °F 46% 30.42 in 10.0 mi ENE 6.9 mph - N/A   Clear
10:35 AM 24.8 °F 17.9 °F 5.0 °F 43% 30.41 in 10.0 mi ESE 5.8 mph - N/A   Clear
10:55 AM 26.6 °F - 5.0 °F 40% 30.41 in 9.0 mi Calm Calm - N/A   Clear
11:15 AM 26.6 °F 19.1 °F 5.0 °F 40% 30.41 in 10.0 mi NE 6.9 mph - N/A   Clear
11:35 AM 26.6 °F 21.2 °F 6.8 °F 43% 30.40 in 10.0 mi East 4.6 mph - N/A   Clear
11:55 AM 28.4 °F 23.3 °F 6.8 °F 40% 30.39 in 10.0 mi NE 4.6 mph - N/A   Clear
12:15 PM 28.4 °F 22.2 °F 8.6 °F 43% 30.38 in 10.0 mi ENE 5.8 mph - N/A   Clear
12:35 PM 28.4 °F - 8.6 °F 43% 30.36 in 10.0 mi Calm Calm - N/A   Clear
12:55 PM 28.4 °F - 8.6 °F 43% 30.35 in 10.0 mi Calm Calm - N/A   Clear
1:15 PM 30.2 °F 25.4 °F 8.6 °F 40% 30.34 in 10.0 mi SSE 4.6 mph - N/A   Clear
1:35 PM 30.2 °F - 10.4 °F 44% 30.33 in 10.0 mi Calm Calm - N/A   Clear
1:55 PM 32.0 °F 27.5 °F 10.4 °F 41% 30.32 in 10.0 mi East 4.6 mph - N/A   Clear
2:15 PM 32.0 °F 26.4 °F 10.4 °F 41% 30.31 in 10.0 mi ESE 5.8 mph - N/A   Clear
2:35 PM 32.0 °F - 12.2 °F 44% 30.31 in 10.0 mi Calm Calm - N/A   Clear
2:55 PM 32.0 °F - 12.2 °F 44% 30.30 in 10.0 mi Calm Calm - N/A   Clear
3:15 PM 32.0 °F 27.5 °F 12.2 °F 44% 30.30 in 10.0 mi East 4.6 mph - N/A   Clear
3:35 PM 32.0 °F 28.7 °F 12.2 °F 44% 30.29 in 9.0 mi East 3.5 mph - N/A   Clear
3:55 PM 32.0 °F 26.4 °F 12.2 °F 44% 30.28 in 10.0 mi East 5.8 mph - N/A   Clear
4:15 PM 32.0 °F 26.4 °F 12.2 °F 44% 30.28 in 10.0 mi ENE 5.8 mph - N/A   Clear
4:35 PM 32.0 °F 26.4 °F 12.2 °F 44% 30.27 in 10.0 mi East 5.8 mph - N/A   Clear
4:55 PM 32.0 °F 26.4 °F 12.2 °F 44% 30.27 in 9.0 mi East 5.8 mph - N/A   Clear
5:15 PM 32.0 °F - 14.0 °F 48% 30.27 in 10.0 mi Calm Calm - N/A   Clear
5:35 PM 30.2 °F - 14.0 °F 51% 30.28 in 10.0 mi Calm Calm - N/A   Clear
5:55 PM 30.2 °F - 17.6 °F 60% 30.28 in 10.0 mi Calm Calm - N/A   Clear
6:15 PM 28.4 °F - 15.8 °F 59% 30.28 in 10.0 mi Calm Calm - N/A   Clear
6:35 PM 28.4 °F - 17.6 °F 64% 30.28 in 10.0 mi Calm Calm - N/A   Clear
6:55 PM 28.4 °F 24.6 °F 14.0 °F 55% 30.28 in 10.0 mi East 3.5 mph - N/A   Clear
7:15 PM 28.4 °F - 14.0 °F 55% 30.28 in 10.0 mi Calm Calm - N/A   Clear
7:35 PM 28.4 °F - 14.0 °F 55% 30.29 in 10.0 mi Calm Calm - N/A   Clear
7:55 PM 26.6 °F 21.2 °F 14.0 °F 59% 30.29 in 10.0 mi NE 4.6 mph - N/A   Clear
8:15 PM 26.6 °F - 14.0 °F 59% 30.29 in 10.0 mi Calm Calm - N/A   Clear
8:35 PM 26.6 °F 20.0 °F 15.8 °F 64% 30.29 in 10.0 mi ENE 5.8 mph - N/A   Clear
8:55 PM 26.6 °F 21.2 °F 14.0 °F 59% 30.29 in 10.0 mi ENE 4.6 mph - N/A   Clear
9:15 PM 24.8 °F 20.5 °F 14.0 °F 64% 30.29 in 10.0 mi ENE 3.5 mph - N/A   Clear
9:35 PM 24.8 °F - 14.0 °F 64% 30.29 in 10.0 mi Calm Calm - N/A   Clear
9:55 PM 23.0 °F 18.4 °F 14.0 °F 68% 30.30 in 10.0 mi NE 3.5 mph - N/A   Clear
10:15 PM 23.0 °F - 14.0 °F 68% 30.30 in 10.0 mi Calm Calm - N/A   Clear
10:35 PM 23.0 °F - 14.0 °F 68% 30.30 in 10.0 mi Calm Calm - N/A   Clear
10:55 PM 23.0 °F - 14.0 °F 68% 30.29 in 10.0 mi Calm Calm - N/A   Clear
11:15 PM 23.0 °F - 14.0 °F 68% 30.29 in 10.0 mi Calm Calm - N/A   Clear
11:35 PM 23.0 °F - 14.0 °F 68% 30.30 in 10.0 mi Calm Calm - N/A   Clear
11:55 PM 21.2 °F - 14.0 °F 74% 30.29 in 10.0 mi Calm Calm - N/A   Clear